Location: Arrington
(35.8681°N, 86.7092°W)
Time: 04:36:05
(UTC+00:00)

ATLAS 2AS CENTAUR R/B - Pass Details

Date: 24 February 2020
Orbit: 929 x 1283 km, 63.7° (Epoch: 03 April)

Event Time Altitude Azimuth Distance (km) Brightness Sun altitude
Rises 11:41:03 0° 332° (NNW) 4,152 5.5 -9.4°
Reaches altitude 10° 11:44:01 10° 337° (NNW) 3,140 4.9 -8.8°
Maximum altitude 11:51:20 54° 53° (NE) 1,352 3.6 -7.3°
Drops below altitude 10° 11:58:01 10° 130° (SE) 2,874 6.0 -6.0°
Sets 12:00:36 0° 135° (SE) 3,776 6.5 -5.5°
